Location: Newark
(51.2656°N, 3.9089°E)
Time: 03:33:36
(UTC+00:00)

Tiangong 2 - Visible Passes

Search period start: 19 March 2019 00:00
Search period end: 29 March 2019 00:00
Orbit: 379 x 390 km, 42.8° (Epoch: 18 March)

Date Brightness Start Highest point End Pass type
(mag) Time Alt. Az. Time Alt. Az. Time Alt. Az.
19 Mar 3.1 04:28:18 15° SSW 04:28:52 16° S 04:30:55 10° SSE visible
20 Mar 3.9 03:31:37 11° SE 03:31:37 11° SE 03:31:51 10° SE visible
20 Mar 3.5 05:05:06 10° SSW 05:05:36 10° SSW 05:06:08 10° SSW visible
21 Mar 3.5 04:07:14 12° S 04:07:14 12° S 04:08:03 10° SSE visible
